Location: Limerick
(52.6650°N, 8.6230°W)
Time: 06:19:53
(UTC+00:00)

ISS - Pass Details

Date: 05 December 2019
Orbit: 411 x 421 km, 51.6° (Epoch: 15 December)

Event Time Altitude Azimuth Distance (km) Brightness Sun altitude
Rises 18:09:00 0° 278° (W) 2,359 1.3 -15.3°
Reaches altitude 10° 18:11:07 10° 274° (W) 1,497 0.2 -15.6°
Maximum altitude 18:14:25 57° 195° (SSW) 498 -3.3 -16.1°
Enters shadow 18:15:59 27° 126° (SE) 840 -2.6 -16.3°
